Tracking 29892 objects as of 21-Nov-2024
HD Live streaming from Space Station
objects crossing your sky now

STARLINK-31578

Track STARLINK-31578 now!
10-day predictions
STARLINK-31578 is classified as:


NORAD ID: 59321
Int'l Code: 2024-057B
Perigee: 450.3 km
Apogee: 452.1 km
Inclination: 43.0 °
Period: 93.5 minutes
Semi major axis: 6822 km
RCS: Unknown
Launch date: March 25, 2024
Source: United States (US)
Launch site: AIR FORCE EASTERN TEST RANGE (AFETR)
Your satellite tracking list
Your tracking list is empty




NASA's NSSDC Master Catalog

Two Line Element Set (TLE):
1 59321U 24057B   24325.48751564 -.00000250  00000-0  12861-5 0  9995
2 59321  42.9996   8.6981 0001348 257.9646 102.1060 15.40691393 38213
Source of the keplerian elements: AFSPC